Weather History for Blackpool, United Kingdom

Change the Weather History Date:

Monday, October 22, 2012

  Actual Average Record
Temperature  
Mean Temperature 48 °F -  
Max Temperature 55 °F 50 °F 62 °F (2013)
Min Temperature 42 °F 42 °F 32 °F (1997)
Degree Days  
Heating Degree Days 16    
Moisture  
Dew Point 50 °F    
Average Humidity 89    
Maximum Humidity 94    
Minimum Humidity 77    
Precipitation  
Precipitation 0.00 in - - ()
Sea Level Pressure  
Sea Level Pressure 30.20 in    
Wind  
Wind Speed 8 mph ()    
Max Wind Speed 12 mph    
Max Gust Speed -    
Visibility 6.2 miles    
Events Rain    
Averages and records for this station are not official NWS values.
T = Trace of Precipitation, MM = Missing Value Source: Averaged Metar Reports

Daily Weather History Graph

Daily Weather History Graph

Search for Another Location

Airport:

Trip Planner

Search our weather history database for the weather conditions in past years. The results will help you decide how hot, cold, wet, or windy it might be!

Date:

Astronomy

Oct. 22, 2012 Rise Set
Actual Time 7:53 AM BST 5:58 PM BST
Civil Twilight 7:17 AM BST 6:34 PM BST
Nautical Twilight 6:36 AM BST 7:15 PM BST
Astronomical Twilight 5:55 AM BST 7:56 PM BST
Moon 2:54 PM BST (10/22) No Moon Set
Length of Visible Light 11h 17m
Length of Day
10h 05m
First Quarter, 53% of the Moon is Illuminated
Oct 22
First Quarter
Oct 29
Full
Nov 7
Last Quarter
Nov 13
New
Nov 20
First Quarter

Hourly Weather History & Observations

Time (BST) Temp. Dew Point Humidity Pressure Visibility Wind Dir Wind Speed Gust Speed Precip Events Conditions
12:50 AM 45 °F 42 °F 87%  in - ENE 9.2 mph - -  
3:50 AM 48 °F 44 °F 80%  in - ENE 10.4 mph - -  
6:20 AM 50.0 °F 46.4 °F 87% 30.18 in 6.2 mi NE 4.6 mph - N/A   Mostly Cloudy
6:50 AM 49 °F 46 °F 85%  in - NE 4.6 mph - -  
6:50 AM 50.0 °F 46.4 °F 87% 30.18 in 6.2 mi NE 4.6 mph - N/A   Scattered Clouds
7:20 AM 50.0 °F 48.2 °F 94% 30.18 in 6.2 mi NE 4.6 mph - N/A   Scattered Clouds
7:50 AM 50.0 °F 48.2 °F 94% 30.18 in 6.2 mi ENE 6.9 mph - N/A   Mostly Cloudy
8:20 AM 51.8 °F 50.0 °F 94% 30.18 in 6.2 mi ENE 6.9 mph - N/A   Mostly Cloudy
8:50 AM 51.8 °F 50.0 °F 94% 30.18 in 6.2 mi ENE 8.1 mph - N/A Rain Light Rain Showers
9:20 AM 51.8 °F 50.0 °F 94% 30.18 in 6.2 mi ENE 10.4 mph - N/A   Mostly Cloudy
9:50 AM 52 °F 49 °F 87%  in - East 11.5 mph - -  
9:50 AM 53.6 °F 50.0 °F 88% 30.18 in 6.2 mi East 11.5 mph - N/A   Mostly Cloudy
10:20 AM 53.6 °F 50.0 °F 88% 30.21 in 6.2 mi East 11.5 mph - N/A   Scattered Clouds
10:50 AM 53.6 °F 51.8 °F 94% 30.21 in 6.2 mi East 10.4 mph - N/A   Mostly Cloudy
11:20 AM 53.6 °F 51.8 °F 94% 30.21 in 6.2 mi East 8.1 mph - N/A   Mostly Cloudy
11:50 AM 53.6 °F 51.8 °F 94% 30.21 in 6.2 mi ENE 6.9 mph - N/A   Mostly Cloudy
12:50 PM 54 °F 50 °F 82%  in - East 11.5 mph - -  
12:50 PM 55.4 °F 51.8 °F 88% 30.21 in 6.2 mi East 11.5 mph - N/A   Mostly Cloudy
1:20 PM 55.4 °F 51.8 °F 88% 30.21 in 6.2 mi East 6.9 mph - N/A   Mostly Cloudy
1:50 PM 55.4 °F 51.8 °F 88% 30.21 in 6.2 mi ENE 10.4 mph - N/A   Mostly Cloudy
2:50 PM 55.4 °F 51.8 °F 88% 30.21 in 6.2 mi East 8.1 mph - N/A   Mostly Cloudy
3:50 PM 56 °F 51 °F 77%  in - East 9.2 mph - -  
3:50 PM 55.4 °F 51.8 °F 88% 30.21 in 6.2 mi East 9.2 mph - N/A   Mostly Cloudy
4:20 PM 55.4 °F 51.8 °F 88% 30.21 in 6.2 mi ENE 9.2 mph - N/A   Mostly Cloudy
4:50 PM 55.4 °F 51.8 °F 88% 30.21 in 6.2 mi ENE 10.4 mph - N/A   Mostly Cloudy
5:20 PM 55.4 °F 51.8 °F 88% 30.21 in 6.2 mi East 10.4 mph - N/A   Mostly Cloudy
6:50 PM 54 °F 50 °F 83%  in - East 11.5 mph - -  
6:50 PM 53.6 °F 51.8 °F 94% 30.24 in 6.2 mi East 10.4 mph - N/A Rain Light Rain Showers
7:20 PM 53.6 °F 51.8 °F 94% 30.24 in 6.2 mi East 9.2 mph - N/A Rain Light Rain Showers
7:50 PM 53.6 °F 51.8 °F 94% 30.24 in 6.2 mi ENE 10.4 mph - N/A   Mostly Cloudy
8:20 PM 53.6 °F 51.8 °F 94% 30.24 in 6.2 mi East 11.5 mph - N/A   Mostly Cloudy
9:50 PM 53 °F 51 °F 89%  in - ENE 10.4 mph - -